sat.trackr.live / text

‹ back to catalog

FIRESAT3

NORAD 69890 · 2026-156X

PAYLOAD ACTIVE UNKNOWN

§ Identity

Operator
Country
US
Launch date
2026-07-07
Launch site
AFWTR
Launch vehicle
Mass (kg)
RCS (m²)

External: N2YO · Heavens-Above · Gunter

§ Orbital elements

Epoch: 2026-09-19T10:45:00.796032Z

Period
96.50 min
Inclination
97.7458°
Eccentricity
0.0004942
Mean motion
14.92223315 rev/d
Perigee alt
587.6 km
Apogee alt
594.4 km
Semi-major
6,969.1 km
B*
6.5463e-5
RAAN
161.6957°
Arg perigee
274.1532°
Mean anomaly
85.9122°
Rev number
1,105

§ Raw data

FIRESAT31 69890U 26156X   26262.44792588  .00000611  00000+0  65463-4 0  99922 69890  97.7458 161.6957 0004942 274.1532  85.9122 14.92223315 11058

JSON: /api/v1/satellites/69890 · /tle

For live sub-satellite position, see the globe view (requires WebGL).

§ Visibility from observer

Set your observer location to see the next 7 days of passes ≥ 10°. The values pass through the URL so the page stays shareable.

No JS? Fill the form by hand. The geolocation button needs JavaScript.